Location: Shades State Park
(39.9310°N, 87.0690°W)
Time: 14:23:29
(UTC-04:00)

ISS - Visible Passes

Search period start: 02 August 2015 00:00
Search period end: 12 August 2015 00:00
Orbit: 401 x 403 km, 51.6° (Epoch: 02 August)

Date Brightness Start Highest point End Pass type
(mag) Time Alt. Az. Time Alt. Az. Time Alt. Az.
02 Aug -0.6 04:42:22 11° SE 04:42:22 11° SE 04:42:30 10° SE visible
02 Aug -0.9 22:51:35 10° W 22:54:21 25° NNW 22:57:07 10° NNE visible
03 Aug 0.1 00:30:36 10° NNW 00:31:40 11° N 00:32:44 10° NNE visible
03 Aug -1.9 21:58:05 10° WSW 22:01:11 40° NNW 22:04:17 10° NE visible
03 Aug -0.1 23:36:43 10° NW 23:38:19 13° NNW 23:39:54 10° NNE visible
04 Aug -0.3 22:42:49 10° WNW 22:45:00 16° NNW 22:47:09 10° NNE visible
05 Aug 0.0 00:21:37 10° NNW 00:22:28 11° N 00:23:05 10° NNE visible
05 Aug -0.8 21:49:04 10° WNW 21:51:43 22° NNW 21:54:22 10° NNE visible
05 Aug 0.0 23:28:07 10° NNW 23:29:05 11° N 23:30:01 10° NNE visible
06 Aug -0.2 22:34:14 10° NW 22:35:41 12° N 22:37:08 10° NNE visible
07 Aug -0.1 00:11:49 10° NNW 00:13:02 12° N 00:13:02 12° N visible
07 Aug -0.4 21:40:18 10° NW 21:42:19 15° NNW 21:44:19 10° NNE visible
07 Aug -0.2 23:18:54 10° NNW 23:19:49 11° N 23:20:46 10° NNE visible
08 Aug -0.2 22:25:31 10° NNW 22:26:23 11° N 22:27:16 10° NNE visible
09 Aug -0.3 00:01:45 10° NNW 00:02:57 15° N 00:02:57 15° N visible
09 Aug -0.3 21:31:39 10° NNW 21:32:58 12° N 21:34:15 10° NNE visible
09 Aug -0.5 23:08:57 10° NNW 23:10:29 13° NNE 23:11:37 11° NNE visible
10 Aug -0.4 22:16:03 10° NNW 22:17:04 11° N 22:18:06 10° NNE visible
10 Aug -0.4 23:51:39 10° NNW 23:52:52 17° NNW 23:52:52 17° NNW visible
11 Aug -0.3 21:22:47 10° NNW 21:23:37 11° N 21:24:26 10° NNE visible
11 Aug -1.0 22:58:48 10° NNW 23:01:04 17° NNE 23:01:33 17° NNE visible
